This is the latest recevied weather packets stored in our database for station/object SP1BMW-13. If no packets are shown the sender has not sent any weather packets the latest 10 day(s).
| Time | Temp. | Humidity | Pressure | Rain* | Wind** | Luminosity | Snow |
|---|---|---|---|---|---|---|---|
| 1788021752 | 23.33° C | 52% | 1009.7 hPa | 0 mm | 0.45 m/s, 264° | 53 W/m² | - |
| 1788021692 | 23.33° C | 52% | 1009.8 hPa | 0 mm | 0.89 m/s, 280° | 58 W/m² | - |
| 1788021632 | 23.33° C | 53% | 1009.8 hPa | 0 mm | 0 m/s | 61 W/m² | - |
| 1788021572 | 23.33° C | 52% | 1009.6 hPa | 0 mm | 0 m/s | 65 W/m² | - |
| 1788021512 | 23.33° C | 52% | 1009.7 hPa | 0 mm | 0 m/s | 67 W/m² | - |
| 1788021458 | 23.33° C | 52% | 1009.9 hPa | 0 mm | 0 m/s | 68 W/m² | - |
| 1788021392 | 23.33° C | 53% | 1009.8 hPa | 0 mm | 0 m/s | 70 W/m² | - |
| 1788021332 | 23.33° C | 52% | 1009.8 hPa | 0 mm | 0.45 m/s, 231° | 70 W/m² | - |
| 1788021272 | 23.33° C | 52% | 1009.8 hPa | 0 mm | 0.89 m/s, 291° | 71 W/m² | - |
| 1788021212 | 23.33° C | 51% | 1009.8 hPa | 0 mm | 0.45 m/s, 91° | 75 W/m² | - |
| 1788021156 | 23.33° C | 52% | 1009.7 hPa | 0 mm | 0 m/s | 73 W/m² | - |
| 1788021095 | 23.33° C | 53% | 1009.7 hPa | 0 mm | 0 m/s | 74 W/m² | - |
| 1788021032 | 23.33° C | 52% | 1009.9 hPa | 0 mm | 0.45 m/s, 288° | 70 W/m² | - |
| 1788020973 | 23.33° C | 53% | 1009.8 hPa | 0 mm | 0 m/s | 67 W/m² | - |
| 1788020912 | 23.33° C | 51% | 1009.8 hPa | 0 mm | 0 m/s | 61 W/m² | - |
| 1788020855 | 23.33° C | 51% | 1009.9 hPa | 0 mm | 0.89 m/s, 119° | 58 W/m² | - |
| 1788020793 | 23.33° C | 52% | 1009.9 hPa | 0 mm | 0.45 m/s, 189° | 58 W/m² | - |
| 1788020735 | 23.33° C | 51% | 1009.8 hPa | 0 mm | 0.45 m/s, 51° | 59 W/m² | - |
| 1788020672 | 23.33° C | 51% | 1009.9 hPa | 0 mm | 0.89 m/s, 192° | 61 W/m² | - |
| 1788020615 | 23.33° C | 51% | 1009.7 hPa | 0 mm | 1.79 m/s, 268° | 65 W/m² | - |
| 1788020552 | 23.33° C | 52% | 1009.9 hPa | 0 mm | 0.89 m/s, 192° | 70 W/m² | - |
| 1788020498 | 23.33° C | 52% | 1009.7 hPa | 0 mm | 1.79 m/s, 151° | 73 W/m² | - |
| 1788020435 | 23.33° C | 52% | 1009.9 hPa | 0 mm | 0.89 m/s, 233° | 77 W/m² | - |
| 1788020372 | 23.33° C | 51% | 1009.8 hPa | 0 mm | 0.89 m/s, 302° | 81 W/m² | - |
| 1788020313 | 23.33° C | 51% | 1009.8 hPa | 0 mm | 1.79 m/s, 299° | 82 W/m² | - |
* Rain latest hour (hover to see other rain measurements)
** Current wind speed in m/s (hover to see current wind gust speed)